Location: Avon Lake
(41.5219°N, 93.5010°W)
Time: 22:03:44
(UTC+00:00)

X-37B - Pass Details

Date: 07 December 2022
Orbit: 277 x 277 km, 45.0° (Epoch: 01 November)

Event Time Altitude Azimuth Distance (km) Brightness Sun altitude
Rises 01:00:06 0° 244° (WSW) 1,907 5.3 -24.7°
Reaches altitude 10° 01:02:01 10° 242° (WSW) 1,097 3.8 -25.1°
Enters shadow 01:02:05 11° 242° (WSW) 1,068 3.7 -25.1°
